ARIANE 5 R/B, 33057

Orbit data source: Space-Track

ARIANE 5 R/B, 33057 is space debris in HEO originally from a launch on Thu, 12 Jun 2008 UTC launched from the French Guiana (FRGUI). Debris objects in space refer to the collection of defunct objects orbiting the Earth. Examples of debris include non-operational satellites, rocket bodies, and fragments generated from explosions, collisions, or faulty payload assembly.

Loading next visibility...
Identifier
33057, 2008-030C
Orbit
HEO
Country
Flag of FRFR
Related business
Manufacturer
EADS/LV
Mission
Spacecraft
Bus & Motor
ESC-A, Unknown motor
Mass
~5,000 kg wet, ~5,000 kg dry
Launch date (UTC)
2008-06-12 (17 years ago)
Launch vehicle
Unknown
Launch site
French Guiana (FRGUI)
Object type
Payload
Rocket body
Debris
Shape & HBR
Cyl + 1 Nozzle, 3.5 m
Radar Cross Section
41.627 m², Large (>1 m²)

Expand to show TLE details & history
Last TLE update: 13 hours ago

TLE from 13 hours ago
0 ARIANE 5 R/B
1 33057U 08030C   25243.32558461  .00006808  00000-0  16859-2 0  9992
2 33057   1.4431 132.9070 7043517 357.8168   0.3635  2.58557225151702
Epoch: 2025-08-31T07:48Z
TLE epoch observation values (Epoch: 2025-08-31T07:48:50.51Z)
Latitude
0.00003°
Longitude
35.92258°
Altitude
241.21 km
Speed
10.131 km/s
True Right ascension
08h 51m 31s
True Declination
0° 00' 00"
Sunlit
Object was in daylight at epoch
Visualization orbit readout
Latitude
Unknown
Longitude
Unknown
Altitude
Unknown
Speed
Unknown
Apparent Right ascension
Unknown
Apparent Declination
Unknown
Sunlit
N/A
Visualization observer readout
Local Sidereal Time
12:58:36
Azimuth
Unknown
Elevation
Unknown
Doppler factor
Unknown
Orbital elements
Apogee altitude
31,848.239 km
Perigee altitude
252.867 km
Semi-major axis
22,428.69 km
Eccentricity
0.70435
Inclination
1.4431°
RAAN
132.907°
Arg. of periapsis
357.8168°
True anomaly
2.95095°
Mean anomaly
0.3635°
Eccentric anomaly
1.22928°
Mean motion
0.64616 °/min
Orbital period
557.14 mins
BSTAR
0.0016859
Loading maneuver chart data...
Computing Atmospheric mass density...
Loading historical data...
Loading historical data...
Loading historical data...
Loading historical data...
Loading historical data...
Loading historical data...
Loading historical data...

Documentation

Showing up to 5 results
|